Port Angeles, WA

12:41 PM PDT on July 23, 2017 (GMT -0700)
Fairchild International

Weather History for KCLM - March, 2013

Change the Weather History Date:

Saturday, March 16, 2013

  Actual Average Record
Temperature  
Mean Temperature 42 °F -  
Max Temperature 46 °F 51 °F 62 °F (1967)
Min Temperature 39 °F 36 °F 27 °F (1988)
Degree Days  
Heating Degree Days 22    
Moisture  
Dew Point 40 °F    
Average Humidity 88    
Maximum Humidity 97    
Minimum Humidity 65    
Precipitation  
Precipitation 0.19 in - - ()
Sea Level Pressure  
Sea Level Pressure 30.00 in    
Wind  
Wind Speed 5 mph (WNW)    
Max Wind Speed 18 mph    
Max Gust Speed 30 mph    
Visibility 9 miles    
Events Rain    
Averages and records for this station are not official NWS values.
T = Trace of Precipitation, MM = Missing Value Source: NWS Daily Summary

Daily Weather History Graph

Daily Weather History Graph

Search for Another Location

Airport or City:

Trip Planner

Search our weather history database for the weather conditions in past years. The results will help you decide how hot, cold, wet, or windy it might be!

Date:

Astronomy

Mar. 16, 2013 Rise Set
Actual Time 7:24 AM PDT 7:21 PM PDT
Civil Twilight 6:53 AM PDT 7:52 PM PDT
Nautical Twilight 6:17 AM PDT 8:28 PM PDT
Astronomical Twilight 5:39 AM PDT 9:06 PM PDT
Moon 9:34 AM PDT (3/16) 12:01 AM PDT (3/16)
Length of Visible Light 12h 59m
Length of Day
11h 57m
Waxing Crescent, 24% of the Moon is Illuminated
Mar 16
Waxing Crescent
Mar 19
First Quarter
Mar 27
Full
Apr 2
Last Quarter
Apr 10
New

Hourly Weather History & Observations

Time (PDT) Temp. Windchill Dew Point Humidity Pressure Visibility Wind Dir Wind Speed Gust Speed Precip Events Conditions
12:12 AM 45.0 °F - 44.1 °F 97% 30.12 in 2.5 mi Calm Calm - N/A   Overcast
12:23 AM 45.0 °F - 44.1 °F 97% 30.11 in 7.0 mi Calm Calm - N/A   Overcast
12:40 AM 44.1 °F - 43.0 °F 96% 30.11 in 2.5 mi Calm Calm - N/A   Overcast
12:53 AM 45.0 °F 43.5 °F 44.1 °F 97% 30.12 in 10.0 mi SSW 3.5 mph - N/A   Mostly Cloudy
1:01 AM 45.0 °F - 43.0 °F 93% 30.11 in 10.0 mi Calm Calm - N/A   Mostly Cloudy
1:10 AM 46.0 °F - 44.1 °F 93% 30.11 in 10.0 mi Calm Calm - N/A   Overcast
1:44 AM 46.0 °F 44.8 °F 44.1 °F 93% 30.11 in 10.0 mi West 3.5 mph - N/A   Overcast
1:51 AM 46.4 °F 45.2 °F 44.6 °F 93% 30.11 in 10.0 mi West 3.5 mph - N/A   Overcast
1:53 AM 46.0 °F - 44.1 °F 93% 30.11 in 10.0 mi Calm Calm - N/A   Overcast
2:05 AM 46.4 °F - 44.6 °F 93% 30.11 in 10.0 mi Calm Calm - N/A   Overcast
2:53 AM 44.1 °F 42.5 °F 43.0 °F 96% 30.10 in 10.0 mi NW 3.5 mph - N/A   Clear
3:53 AM 44.1 °F 41.5 °F 42.1 °F 93% 30.09 in 10.0 mi WSW 4.6 mph - N/A   Clear
4:53 AM 42.1 °F - 41.0 °F 96% 30.06 in 10.0 mi Calm Calm - N/A   Mostly Cloudy
5:32 AM 43.0 °F 39.5 °F 41.0 °F 93% 30.04 in 10.0 mi WSW 5.8 mph - N/A   Scattered Clouds
5:53 AM 44.1 °F 42.5 °F 41.0 °F 89% 30.04 in 10.0 mi SW 3.5 mph - N/A   Clear
6:53 AM 43.0 °F 41.3 °F 41.0 °F 93% 30.02 in 10.0 mi West 3.5 mph - N/A   Partly Cloudy
7:45 AM 44.1 °F - 42.1 °F 93% 30.00 in 10.0 mi Calm Calm - N/A   Mostly Cloudy
7:53 AM 43.0 °F - 42.1 °F 97% 30.00 in 10.0 mi Calm Calm - N/A   Mostly Cloudy
8:23 AM 43.0 °F - 41.0 °F 93% 29.99 in 10.0 mi Calm Calm - N/A   Mostly Cloudy
8:33 AM 44.1 °F - 42.1 °F 93% 29.99 in 10.0 mi Calm Calm - N/A   Overcast
8:53 AM 45.0 °F - 44.1 °F 97% 30.00 in 10.0 mi Calm Calm - N/A   Overcast
9:53 AM 46.9 °F - 43.0 °F 86% 29.99 in 10.0 mi Calm Calm - N/A   Overcast
10:15 AM 46.9 °F - 43.0 °F 86% 29.98 in 10.0 mi Calm Calm - 0.00 in Rain Light Rain
10:40 AM 46.9 °F - 43.0 °F 86% 29.97 in 9.0 mi NW 5.8 mph - 0.01 in Rain Light Rain
10:53 AM 46.9 °F - 44.1 °F 90% 29.98 in 9.0 mi NW 5.8 mph - 0.01 in Rain Light Rain
11:01 AM 46.9 °F - 44.1 °F 90% 29.97 in 9.0 mi Variable 4.6 mph - 0.01 in Rain Light Rain
11:10 AM 46.9 °F - 44.1 °F 90% 29.97 in 10.0 mi NW 5.8 mph - 0.01 in Rain Light Rain
11:22 AM 46.9 °F - 44.1 °F 90% 29.96 in 9.0 mi NW 5.8 mph - 0.01 in Rain Light Rain
11:53 AM 44.1 °F 37.7 °F 43.0 °F 96% 29.96 in 2.5 mi NW 12.7 mph 19.6 mph 0.05 in Rain Rain
12:10 PM 44.1 °F 37.4 °F 42.1 °F 93% 29.95 in 4.0 mi NW 13.8 mph - 0.05 in Rain Light Rain
12:48 PM 44.6 °F 37.2 °F 39.2 °F 81% 29.94 in 10.0 mi WNW 17.3 mph 25.3 mph 0.07 in Rain Light Rain
12:53 PM 44.1 °F 36.2 °F 39.9 °F 85% 29.95 in 10.0 mi WNW 18.4 mph 28.8 mph 0.07 in Rain Light Rain
1:11 PM 43.0 °F 35.1 °F 39.0 °F 86% 29.94 in 9.0 mi WNW 17.3 mph 26.5 mph 0.02 in Rain Light Rain
1:34 PM 43.0 °F 34.8 °F 39.0 °F 86% 29.93 in 10.0 mi WNW 18.4 mph 26.5 mph 0.03 in Rain Light Rain
1:53 PM 43.0 °F 35.4 °F 39.0 °F 86% 29.93 in 10.0 mi WNW 16.1 mph 26.5 mph 0.03 in Rain Light Rain
2:00 PM 42.1 °F 33.9 °F 39.0 °F 89% 29.92 in 10.0 mi WNW 17.3 mph 26.5 mph 0.00 in Rain Light Rain
2:13 PM 42.1 °F 33.6 °F 37.9 °F 85% 29.91 in 10.0 mi WNW 18.4 mph 29.9 mph 0.00 in Rain Light Rain
2:53 PM 41.0 °F 32.2 °F 37.0 °F 86% 29.92 in 10.0 mi WNW 18.4 mph 27.6 mph 0.02 in Rain Light Rain
3:53 PM 43.0 °F 35.1 °F 36.0 °F 76% 29.91 in 10.0 mi WNW 17.3 mph - 0.01 in   Overcast
4:53 PM 45.0 °F 37.6 °F 36.0 °F 71% 29.91 in 10.0 mi West 17.3 mph 24.2 mph N/A   Mostly Cloudy
5:53 PM 44.1 °F 37.1 °F 33.1 °F 65% 29.91 in 10.0 mi WNW 15.0 mph 25.3 mph N/A   Partly Cloudy
6:53 PM 41.0 °F 32.5 °F 33.1 °F 73% 29.90 in 10.0 mi WSW 17.3 mph 20.7 mph N/A   Mostly Cloudy
7:53 PM 39.9 °F 31.4 °F 34.0 °F 79% 29.92 in 10.0 mi WSW 16.1 mph 25.3 mph N/A   Mostly Cloudy
8:53 PM 39.0 °F 32.8 °F 33.1 °F 79% 29.94 in 10.0 mi WSW 9.2 mph - N/A   Overcast
9:53 PM 39.9 °F 32.9 °F 32.0 °F 73% 29.95 in 10.0 mi West 11.5 mph - N/A   Partly Cloudy
10:53 PM 41.0 °F 34.7 °F 32.0 °F 70% 29.96 in 10.0 mi West 10.4 mph - N/A   Scattered Clouds
11:53 PM 41.0 °F 33.5 °F 32.0 °F 70% 29.98 in 10.0 mi West 13.8 mph - 0.00 in   Scattered Clouds